RH
83 72 69 62 52 42 36 28 21 19 14 13 12 11 13 12 12 12 11 10 8 8 8 8 10 13 17 21 24 27 27 21 25 28 30 31 24 21 17 12 12 10 12 14 16 16 13 12 10 8 11 14 19 24 23 23 22 25 26 20 19 20 18 15 14 16 18 18 15 14 13 13 15 14 14 14 14 14 13 17 19 21 23 24 25 25 25 26
59 44 50 60 56 46 44 37 29 26 20 16 14 12 12 13 13 11 11 10 9 11 10 12 15 20 24 25 28 29 26 24 30 29 24 25 23 19 16 12 11 10 14 18 16 13 11 10 10 9 11 15 19 23 24 23 22 24 24 19 19 21 18 15 14 16 17 16 15 15 15 14 15 15 15 15 15 14 14 17 20 23 25 24 25 24 25 27
60 50 55 74 76 58 49 44 38 37 31 24 20 16 13 15 14 12 14 13 15 17 16 20 21 26 28 27 29 25 30 38 36 28 21 20 21 17 13 12 11 10 14 18 15 12 12 11 9 9 10 12 15 18 21 22 21 19 20 22 19 17 16 14 14 16 15 15 15 15 16 15 15 15 15 15 15 14 15 18 19 22 25 24 25 25 25 27
86 78 75 89 93 75 64 58 54 51 40 31 24 17 15 18 18 20 23 21 22 23 24 27 26 29 26 24 25 22 43 52 34 26 19 17 18 15 12 11 11 12 14 16 16 13 12 11 9 9 11 12 13 14 17 20 22 18 18 21 16 13 16 15 15 16 16 17 15 16 17 15 15 15 15 15 15 15 18 20 18 20 24 25 26 26 25 27
98 95 92 96 97 93 88 77 66 54 37 27 23 19 18 20 22 26 28 27 27 27 27 27 25 25 21 22 21 27 53 44 22 24 17 13 14 12 12 12 13 13 15 17 15 14 13 11 10 11 11 13 14 14 15 16 20 20 16 16 14 14 17 15 16 18 17 17 15 16 16 15 16 16 15 15 16 19 22 23 21 22 24 25 27 26 27 28
96 96 98 98 97 95 91 76 57 41 29 22 21 24 24 24 26 28 30 29 28 27 26 24 22 21 19 20 17 34 53 31 18 24 14 13 14 12 14 13 14 14 16 17 15 14 15 12 11 13 12 11 13 14 16 15 17 21 17 15 15 15 16 15 17 21 18 16 16 16 16 16 16 16 15 14 17 22 24 24 24 25 25 25 26 27 31 32
96 95 98 96 90 78 66 57 41 29 23 20 22 26 27 28 29 31 31 29 27 25 25 24 22 21 19 21 28 43 44 27 25 24 15 15 13 13 14 13 14 16 18 17 15 15 15 15 12 13 13 11 12 13 16 15 15 19 18 16 17 17 15 16 18 20 18 17 17 16 18 17 16 17 14 15 21 25 25 24 24 24 24 25 28 30 34 35
98 97 99 89 75 60 44 37 31 27 24 22 24 26 28 30 30 32 31 27 25 23 26 26 24 25 19 25 43 43 34 35 32 22 19 17 15 15 14 15 15 16 20 17 15 17 17 17 14 13 13 13 13 14 16 16 15 18 18 17 19 17 15 17 18 19 18 17 17 17 19 19 17 17 15 18 25 26 24 25 25 24 25 25 29 32 34 36
98 99 99 86 75 56 32 24 24 26 29 30 31 28 30 31 30 33 30 27 26 25 29 28 27 27 20 32 45 32 30 41 33 23 23 22 22 19 16 22 20 17 19 17 16 17 18 17 15 14 14 14 14 14 16 17 18 19 18 18 18 18 16 17 18 18 18 18 17 19 20 19 17 17 17 20 25 26 25 26 25 25 26 27 29 30 33 36
98 99 98 92 92 70 35 23 21 26 37 42 40 35 33 32 30 32 31 29 30 32 31 29 31 28 29 44 42 28 33 36 31 29 27 27 27 21 21 25 22 19 18 17 18 17 18 18 16 16 16 15 13 15 17 18 20 18 18 18 18 18 17 17 18 17 18 19 18 20 21 18 17 18 19 24 26 25 25 26 25 26 27 28 30 31 32 35
90 92 97 98 100 85 53 33 26 30 43 50 48 46 42 33 31 33 34 33 34 37 34 32 34 29 36 44 30 28 37 33 32 32 28 29 27 23 25 23 21 23 21 18 19 18 19 18 16 15 16 16 15 16 18 18 19 18 18 20 19 19 18 18 18 17 18 18 18 19 19 18 19 19 20 25 27 24 25 26 25 26 28 29 31 33 33 35
85 83 92 99 99 93 72 49 43 41 48 60 56 53 50 36 32 36 38 38 40 41 36 35 34 31 41 39 26 32 38 34 33 31 29 29 25 25 25 20 19 22 23 21 21 21 19 17 16 15 15 17 17 18 19 18 18 17 20 23 22 19 19 19 17 18 19 19 18 17 22 22 20 21 21 25 26 23 25 26 26 27 29 30 31 33 35 36
88 87 87 94 99 99 82 62 66 67 65 74 71 67 61 44 38 42 43 44 45 43 39 38 35 36 45 37 28 33 34 36 36 31 30 28 26 25 22 20 19 20 22 24 25 21 17 17 18 16 15 16 17 20 21 18 18 20 21 23 25 24 22 19 17 20 19 20 17 18 29 27 18 22 24 25 25 23 25 26 27 28 29 32 32 34 38 38
86 93 88 92 99 100 89 72 76 84 81 82 86 85 71 51 45 47 47 46 47 45 42 40 38 43 46 33 30 32 30 34 36 33 30 28 30 27 24 23 21 21 21 24 24 18 16 18 18 16 16 18 19 21 21 19 21 22 22 24 28 32 28 19 19 21 20 21 17 19 32 28 19 24 26 25 24 24 26 26 27 28 29 32 33 35 40 40
83 89 89 92 98 100 96 82 71 77 86 89 92 87 71 59 53 52 51 46 46 44 41 40 39 47 45 32 33 33 30 33 35 35 31 30 33 29 27 25 23 23 21 23 21 17 18 18 19 19 18 19 20 23 24 24 23 22 28 34 32 34 31 21 19 20 20 21 18 20 31 26 20 23 23 24 24 23 24 25 26 28 28 32 35 35 38 41
88 88 89 92 99 100 98 92 72 63 81 93 90 77 68 65 59 55 52 47 47 42 45 50 42 42 41 33 37 37 36 37 37 38 31 31 34 29 27 26 24 23 21 22 19 18 20 18 24 28 23 22 23 27 30 32 31 26 31 38 35 34 31 24 21 19 19 21 19 21 27 24 20 21 22 23 24 23 22 23 25 26 28 31 34 34 36 42
95 92 89 90 98 99 98 99 79 64 79 89 83 76 72 69 61 56 51 46 45 41 45 50 40 35 35 33 36 36 37 42 42 40 31 30 33 28 26 25 23 23 21 22 21 20 20 20 28 30 25 25 25 28 37 44 42 34 33 37 35 30 27 26 25 22 21 21 21 22 24 23 20 21 22 22 23 23 22 22 24 26 29 30 32 32 35 42
97 96 94 93 98 100 100 100 84 76 89 87 77 77 73 66 59 57 56 48 47 49 45 44 40 35 33 33 34 34 39 45 46 43 34 31 31 27 25 23 22 23 23 24 24 23 25 25 28 30 30 30 27 30 44 48 39 33 35 38 36 29 25 25 26 25 22 22 23 24 25 23 20 21 22 22 21 22 21 20 23 26 28 30 32 32 34 39
97 98 98 97 96 99 101 99 88 86 95 89 79 78 74 69 63 62 66 58 52 49 39 41 42 31 29 33 35 40 43 44 45 43 36 31 28 27 25 23 23 23 26 30 29 26 29 33 36 40 40 35 29 29 36 36 28 27 32 36 36 32 28 23 24 25 22 24 25 25 26 23 20 21 22 22 20 21 21 19 22 26 28 31 32 32 34 37
98 98 99 98 95 98 101 97 91 91 94 92 92 89 78 72 63 59 66 62 51 36 25 33 35 26 28 35 41 45 43 41 42 41 37 31 28 27 25 24 27 29 30 35 36 29 30 42 47 46 40 32 28 26 26 25 23 25 30 34 33 33 31 23 24 25 21 26 28 25 27 25 22 22 21 21 21 21 21 19 22 25 29 31 33 34 34 40
98 99 100 98 94 97 101 96 94 97 95 96 100 87 64 57 52 49 56 55 49 40 30 30 28 27 30 37 44 41 35 37 38 39 37 30 28 29 28 27 32 38 34 32 37 33 34 47 48 38 32 26 24 24 23 24 24 25 30 34 34 35 33 24 24 26 22 29 32 27 28 27 24 23 21 21 22 23 22 21 22 25 29 32 33 36 39 51
98 100 100 98 94 96 100 97 96 99 98 99 101 85 64 61 56 50 53 49 46 45 41 33 27 28 31 35 39 33 31 34 38 44 40 31 31 31 30 30 34 39 33 31 40 43 46 49 40 30 27 25 24 23 24 25 26 29 32 37 41 37 32 28 27 26 24 30 34 30 32 31 26 24 23 23 23 23 21 19 21 24 28 32 34 37 46 60
99 99 100 98 94 98 100 97 97 99 99 98 96 85 74 67 57 55 58 52 45 41 42 41 34 30 32 34 35 32 33 31 35 47 42 33 34 33 31 32 33 34 32 34 41 50 54 45 32 28 26 25 26 25 26 28 29 33 35 39 44 37 36 38 33 29 27 29 32 32 34 33 28 27 25 24 23 22 25 25 28 33 29 31 36 38 47 56
99 99 99 96 95 100 99 94 98 99 97 97 90 81 75 65 54 59 62 50 41 36 34 36 35 32 32 34 33 32 32 26 29 42 40 33 32 34 33 30 31 33 31 32 35 43 44 32 25 27 27 27 29 29 31 33 34 38 40 41 41 36 35 37 33 31 30 30 31 33 43 42 33 33 30 27 28 28 34 36 38 43 36 37 43 42 46 51
99 100 99 96 96 98 96 95 99 97 92 92 88 80 78 69 56 59 60 45 37 40 40 38 39 38 32 33 33 30 32 29 27 35 38 32 30 33 32 27 30 34 31 30 34 38 35 27 25 29 30 31 33 33 36 40 40 40 41 39 35 32 33 36 36 37 42 47 38 36 59 60 40 36 34 33 36 34 38 38 38 44 42 42 46 45 47 51
100 100 99 99 95 93 97 98 97 96 90 87 85 80 76 71 62 58 52 42 37 46 54 47 41 38 34 36 36 30 34 37 33 35 36 32 29 29 32 29 29 32 29 27 31 35 32 27 28 33 35 39 41 38 38 41 41 43 48 44 34 31 37 41 40 43 53 57 41 36 61 65 47 39 35 35 37 35 39 41 38 43 45 46 48 47 49 50
101 99 100 100 94 94 99 94 91 93 88 81 79 77 71 64 64 61 50 44 40 46 57 53 39 36 38 37 33 30 37 43 41 38 37 37 32 28 33 33 31 32 27 27 39 40 33 34 37 38 40 47 48 41 37 37 42 51 56 49 36 32 41 44 43 50 53 53 48 42 50 63 61 47 36 35 37 36 38 41 39 39 43 46 48 48 49 50
100 100 100 100 95 95 94 84 83 86 83 76 73 76 70 61 64 61 51 45 42 42 50 51 39 34 40 37 31 34 38 40 44 45 40 38 34 31 35 33 30 33 27 32 50 48 38 42 46 43 45 50 45 41 41 35 41 55 54 47 42 42 47 45 47 55 53 57 67 56 48 64 67 47 36 37 37 37 35 36 39 37 41 44 45 47 49 51
99 100 100 100 96 94 92 87 82 78 76 74 75 77 69 65 64 59 53 44 38 42 44 45 44 40 43 41 35 37 39 40 45 50 43 37 37 35 37 35 29 32 30 29 43 50 47 45 44 44 46 46 43 51 57 42 40 55 53 48 49 48 47 46 51 57 57 67 75 62 53 66 66 48 43 44 39 38 32 31 35 35 40 43 42 46 49 50
99 100 100 100 98 95 96 98 91 78 72 74 83 81 70 69 60 53 65 52 32 40 45 44 50 49 47 48 45 39 40 46 47 48 43 38 39 36 34 36 30 33 40 37 40 44 43 43 45 45 42 41 45 57 63 52 49 55 52 50 52 51 48 51 53 54 65 77 73 60 52 59 69 57 45 43 39 34 30 31 36 37 41 42 41 46 49 50
100 100 100 100 98 94 96 100 95 85 76 74 84 81 69 73 62 48 55 40 21 39 50 47 51 51 50 53 53 46 43 49 48 47 47 42 43 41 39 43 39 42 53 54 51 47 45 48 51 47 42 41 48 55 56 53 53 52 49 51 57 58 57 60 58 59 78 82 64 56 50 55 71 59 37 35 32 28 30 33 37 40 41 41 43 46 47 51
100 100 100 101 96 93 95 92 87 90 82 71 81 80 66 74 77 59 40 17 17 42 51 51 54 52 51 51 53 52 48 50 48 46 50 50 52 49 46 49 49 54 63 62 59 58 57 55 51 52 50 44 49 57 56 53 53 53 52 57 68 69 69 75 74 73 83 75 54 52 55 59 65 49 33 33 29 29 35 36 35 39 41 42 44 46 48 53
101 100 99 102 97 94 97 85 79 91 86 73 83 83 68 72 75 60 38 18 25 47 49 52 55 50 50 52 54 54 51 51 50 46 48 51 55 55 49 46 45 52 60 61 65 69 67 60 54 57 55 45 44 52 60 62 57 54 55 64 75 77 79 86 81 77 79 67 52 49 58 69 65 46 36 34 32 36 43 42 38 37 40 42 44 48 52 55
100 100 99 101 97 96 98 85 78 89 86 81 91 90 82 77 63 50 42 28 31 47 48 49 55 53 51 54 55 53 56 57 50 46 52 56 60 62 56 49 44 46 51 58 66 71 73 72 63 59 56 49 43 42 49 57 55 51 49 56 69 72 74 79 76 75 75 65 55 53 62 73 64 49 43 41 41 44 46 46 41 40 42 45 47 50 54 55
100 100 99 100 99 98 99 88 81 87 88 89 96 95 90 82 68 61 53 32 28 44 49 48 55 59 58 58 55 50 57 64 54 49 57 59 60 61 56 51 46 44 50 58 62 62 66 67 58 53 52 47 45 41 37 49 60 54 46 53 64 61 58 67 70 64 64 68 67 64 69 64 48 41 44 46 46 45 46 45 41 43 47 49 51 52 53 54
100 101 99 101 100 98 100 94 86 87 89 92 99 98 88 75 67 65 52 31 28 43 53 55 59 65 66 66 65 57 55 61 59 58 63 60 58 57 53 50 45 43 48 53 57 60 65 69 61 54 50 45 50 48 37 47 61 57 57 62 61 54 51 64 74 63 61 75 74 65 67 58 42 40 43 45 47 46 49 47 41 45 50 51 53 53 53 55
100 100 98 99 99 95 97 96 91 90 91 95 100 96 87 74 60 51 40 28 28 39 52 59 62 64 66 70 73 65 60 63 62 64 69 64 60 56 50 48 44 42 42 43 50 55 58 69 68 58 56 54 55 52 44 46 54 59 69 63 53 58 57 60 75 76 73 80 74 63 62 59 53 51 46 44 46 46 50 49 44 49 53 52 54 55 54 55
99 100 97 95 95 94 95 98 97 96 95 97 99 90 81 72 57 42 33 26 30 42 49 51 53 56 61 67 71 65 62 67 67 66 69 67 61 53 49 49 45 40 38 38 49 53 49 62 71 64 63 60 50 51 55 54 52 57 62 54 54 71 72 66 74 81 83 84 76 66 62 57 56 52 46 44 43 41 47 50 47 49 52 52 53 55 54 54
99 102 96 88 90 94 97 100 99 99 99 98 100 92 75 64 52 41 32 25 30 44 47 42 44 49 52 55 62 64 61 63 68 68 66 66 61 51 45 47 47 44 39 38 49 55 49 58 73 71 64 57 52 58 67 65 58 55 55 52 55 62 68 70 69 69 77 82 75 68 64 58 50 43 40 40 37 35 42 48 47 46 49 49 51 54 54 53
98 101 92 78 85 95 97 100 100 100 100 97 95 90 75 61 52 42 33 28 31 41 45 41 39 42 45 46 53 61 61 60 65 65 61 60 58 53 45 43 48 47 40 40 49 54 52 56 70 75 66 63 65 64 64 62 60 62 63 63 61 59 63 69 65 59 67 76 73 70 69 58 42 34 33 33 31 33 38 45 46 45 46 47 49 52 52 52
97 100 91 74 80 94 98 101 100 97 97 96 90 85 75 62 52 45 36 30 31 34 37 40 39 38 40 42 45 56 61 59 62 63 59 55 53 53 47 41 45 48 47 53 53 52 56 59 69 80 78 73 67 55 49 51 55 59 62 63 62 60 64 71 71 62 60 65 65 67 71 56 36 32 34 32 31 31 34 41 44 45 45 46 49 50 49 50
99 99 90 78 82 95 100 100 97 94 96 95 86 81 76 62 53 50 41 34 34 32 32 40 43 39 40 38 40 54 62 59 61 62 58 54 49 48 47 41 42 45 50 58 56 53 62 66 68 75 75 68 60 52 51 53 53 55 56 57 58 58 61 69 73 68 62 61 57 64 73 57 39 41 41 39 39 36 36 40 43 46 45 45 49 50 49 50
98 95 90 84 83 93 101 99 95 97 96 89 80 76 74 66 58 53 45 40 39 34 34 40 43 42 41 37 39 51 59 59 59 58 57 55 47 41 43 42 43 46 50 58 58 58 65 68 70 73 68 61 58 58 57 52 54 60 60 57 56 56 55 57 61 63 64 65 62 71 76 56 45 53 49 44 47 43 41 42 43 47 46 45 49 49 49 50
96 94 96 94 87 89 100 99 96 99 95 87 84 80 75 73 69 61 51 46 41 37 38 40 41 41 39 37 39 46 55 58 58 57 55 55 54 49 42 41 47 48 48 55 57 58 65 72 79 83 82 79 77 76 74 65 61 64 62 57 54 53 54 55 56 59 63 64 63 70 71 54 48 56 51 45 45 42 43 44 44 48 48 46 49 50 49 51
97 96 96 97 94 94 97 89 87 96 96 90 91 87 81 80 78 70 63 53 41 38 42 41 40 42 40 40 43 45 51 53 54 58 56 55 64 65 50 44 48 46 46 53 53 58 70 75 76 84 89 89 85 82 80 74 67 63 59 58 56 55 58 58 60 66 69 64 60 62 62 53 45 46 46 46 44 41 44 47 47 49 50 48 50 52 52 52
96 97 98 97 97 98 94 82 81 90 92 93 95 89 86 86 78 73 76 70 51 42 44 44 44 48 47 46 47 49 53 51 52 60 61 60 69 74 64 52 47 49 60 63 57 63 76 74 69 74 77 74 68 63 64 67 67 64 62 61 59 58 59 59 63 69 66 63 63 58 53 52 50 44 42 46 46 44 47 51 51 54 55 53 53 54 54 54
93 95 96 96 96 99 98 92 90 90 87 91 93 86 86 88 80 77 83 80 63 51 51 52 53 56 56 54 52 51 52 53 56 58 59 66 76 78 72 63 54 57 67 64 56 67 78 73 68 70 67 61 56 52 54 61 63 62 63 63 61 60 62 65 66 62 56 62 66 55 50 56 53 45 43 45 45 44 46 49 51 53 57 56 55 56 56 56
95 94 90 88 91 95 97 96 95 92 87 89 88 83 84 88 87 86 86 82 73 66 69 73 69 63 57 54 55 56 56 60 65 60 55 68 82 78 68 66 65 67 69 63 60 69 73 69 68 71 68 60 55 52 54 59 59 58 61 62 61 62 65 67 66 57 55 63 62 51 54 57 49 44 45 42 40 39 40 44 48 51 56 59 60 59 57 57
96 99 93 89 91 93 94 93 94 94 92 91 91 88 87 89 89 84 80 85 88 81 80 84 79 68 61 55 55 59 62 64 68 65 57 63 79 80 72 72 75 76 74 73 75 75 71 66 66 71 73 68 62 59 57 59 60 60 61 61 59 61 63 63 61 56 56 60 53 50 57 56 46 45 43 38 40 42 41 44 48 52 58 62 62 60 57 57
97 100 95 93 96 94 91 91 92 95 95 94 95 93 91 92 90 82 76 83 92 89 84 85 79 70 66 63 60 60 59 58 61 62 58 63 75 78 73 71 80 86 78 72 77 77 73 72 70 71 78 77 70 67 67 66 67 67 66 64 61 62 63 63 61 58 60 61 54 54 61 57 47 45 43 43 46 47 47 49 50 54 61 63 63 61 58 57
93 93 92 95 97 94 93 92 91 95 98 98 96 92 91 91 87 82 77 75 78 82 83 84 79 72 71 72 71 66 58 53 55 55 56 61 66 66 65 65 76 88 83 75 79 78 77 84 82 80 87 84 73 74 75 71 73 77 75 70 67 67 65 62 61 58 59 61 60 63 66 57 48 49 51 50 48 46 47 50 52 56 61 62 63 62 60 59
92 93 94 95 95 93 94 94 94 97 97 95 91 86 87 87 81 82 86 80 73 73 76 77 76 78 83 83 77 69 61 60 66 70 72 73 67 62 66 68 69 78 83 81 83 82 81 83 81 84 91 85 74 75 77 78 87 89 79 70 66 66 64 60 60 58 56 57 61 64 60 50 51 56 55 53 52 50 49 49 51 57 61 61 61 61 61 60
Wind_Speed
2 2 1 1 1 1 2 2 2 2 2 3 3 3 3 2 3 2 1 2 2 2 2 2 3 5 6 7 8 9 10 10 8 5 2 2 3 1 3 3 3 3 3 4 5 5 5 3 0 3 3 1 1 1 2 2 1 2 0 1 3 1 2 2 2 3 3 6 5 4 2 1 4 3 2 2 2 3 4 6 5 7 8 7 8 6 6 8
2 2 1 1 1 1 2 1 1 2 2 2 2 2 2 1 2 2 1 1 1 1 2 3 4 5 7 8 8 10 11 10 8 2 4 3 1 3 4 4 4 4 4 5 5 6 5 2 3 4 3 1 0 0 1 1 1 1 1 2 2 2 1 3 5 5 3 5 6 5 2 2 3 2 2 1 3 5 4 6 6 6 7 7 8 8 9 10
1 1 1 1 2 2 2 1 1 1 1 1 1 1 1 1 1 1 0 1 1 2 3 4 5 6 7 8 8 11 11 8 4 1 4 3 4 5 4 5 5 4 3 5 6 6 6 4 4 4 2 1 1 0 1 1 1 0 1 2 2 2 3 4 6 5 5 5 4 5 3 1 2 2 2 2 4 5 2 4 5 6 6 6 7 7 9 10
1 1 0 1 2 2 2 2 2 2 1 0 1 1 1 1 1 1 1 1 2 2 3 4 5 6 7 7 9 10 8 4 1 2 3 4 5 5 6 6 5 4 4 5 5 5 5 5 4 4 3 0 2 1 1 2 1 1 0 1 2 2 3 4 5 6 5 5 3 5 3 1 2 2 1 2 4 3 1 3 2 7 8 6 6 6 9 10
2 1 1 2 2 2 3 3 3 2 2 1 1 1 1 0 1 1 1 2 2 3 3 4 5 5 6 6 8 8 5 1 1 3 5 6 6 7 7 6 5 4 5 3 4 4 5 6 3 2 2 1 3 2 0 3 1 1 1 3 3 3 2 4 5 5 4 3 3 2 1 1 3 1 2 4 4 1 3 4 5 8 8 7 6 7 8 9
3 2 2 3 3 3 3 3 3 3 3 2 1 1 0 1 1 2 2 2 3 3 3 4 4 5 5 6 7 6 3 0 3 6 6 7 7 8 7 6 5 4 5 2 4 4 5 4 2 2 2 1 1 2 1 2 1 1 1 3 4 3 1 3 4 3 2 2 1 1 1 2 2 2 4 5 3 3 5 5 6 8 8 9 8 7 7 7
4 3 3 3 3 3 3 3 3 2 3 2 2 1 1 2 2 2 3 3 3 3 3 3 3 4 4 5 5 4 2 1 3 7 7 7 7 7 6 5 3 4 3 4 5 3 3 3 3 2 2 2 1 3 2 1 2 2 1 3 3 3 2 3 4 2 1 2 1 2 3 2 3 3 1 2 4 7 6 6 8 8 10 10 8 7 7 7
5 5 4 4 4 4 3 3 3 2 3 3 2 2 2 2 3 3 3 3 3 2 2 2 2 3 4 4 3 3 2 1 3 7 7 6 5 5 4 2 2 3 3 5 5 5 3 4 3 2 2 1 2 1 1 2 3 2 1 2 3 1 1 3 3 3 2 3 2 2 2 4 6 2 1 3 7 7 6 7 8 8 8 8 7 6 7 7
6 5 5 4 4 5 5 4 4 3 3 3 3 3 3 3 3 3 4 3 2 2 2 2 2 3 4 4 3 3 0 3 4 6 6 4 3 3 3 2 1 2 4 2 4 5 2 3 3 4 3 2 2 1 3 1 1 1 3 2 0 2 4 4 5 5 5 3 2 2 5 7 4 1 1 3 8 6 6 6 6 7 6 6 6 5 6 6
7 6 6 5 5 6 6 5 5 3 3 3 4 4 5 5 4 4 4 3 2 2 1 2 2 2 4 4 3 3 2 5 5 5 5 4 3 3 2 2 0 3 5 1 2 5 3 4 4 3 3 1 1 1 2 1 1 1 3 4 4 5 5 5 6 6 5 4 4 4 6 6 2 3 3 3 8 7 7 6 5 6 6 6 5 5 7 7
10 8 7 6 6 7 7 6 5 4 4 4 5 5 6 6 5 4 3 2 1 1 1 2 2 3 5 4 3 2 3 6 5 5 4 4 5 5 3 3 2 1 4 3 1 3 5 5 4 2 2 2 1 1 2 1 1 1 2 5 7 7 7 6 7 6 5 3 6 6 7 4 3 4 5 6 7 7 8 6 6 6 5 6 6 5 6 7
11 9 7 6 6 7 9 7 6 6 5 5 5 5 6 6 5 4 3 2 1 2 2 1 2 2 4 4 4 2 6 6 6 6 4 4 5 5 4 4 3 1 3 4 1 1 3 4 4 3 1 2 2 1 1 0 2 1 1 5 6 6 8 9 9 6 5 3 5 4 4 5 7 6 4 9 7 7 7 6 6 6 5 5 5 5 5 7
11 10 9 7 6 8 10 8 6 6 6 5 6 6 6 6 4 4 3 2 2 2 2 2 2 1 2 3 2 6 8 6 6 5 4 4 4 3 3 4 3 2 1 3 2 1 1 1 4 3 2 2 2 1 1 1 1 3 3 4 4 5 5 7 7 6 5 3 5 5 2 5 7 5 7 8 8 8 7 6 6 5 5 5 5 5 5 6
12 11 11 7 7 10 11 9 7 6 6 5 6 7 7 6 4 3 2 2 2 2 2 3 3 1 1 1 2 6 7 6 5 5 6 6 4 2 2 2 2 1 1 0 1 1 2 1 4 3 2 2 1 1 2 2 2 2 4 2 2 2 3 1 5 7 5 1 4 6 2 5 1 6 7 7 8 8 7 7 7 6 5 5 5 5 5 5
14 13 12 9 8 11 11 11 10 8 6 5 6 7 6 5 3 2 2 2 2 3 2 2 4 2 2 2 2 3 5 5 6 6 7 7 4 3 3 3 3 2 2 2 2 3 3 0 2 1 1 1 1 2 3 3 3 3 2 3 2 2 3 2 4 8 5 1 4 5 2 4 2 6 7 6 7 8 7 7 7 6 6 5 4 5 5 5
15 14 13 10 9 10 11 12 12 9 6 5 6 6 4 3 2 1 2 2 1 3 2 1 4 4 3 2 2 2 4 5 7 8 8 9 6 4 7 5 4 3 3 3 3 4 2 1 0 1 0 1 2 2 3 4 3 3 4 3 3 3 4 3 3 5 4 4 6 6 3 2 3 6 7 7 8 8 7 8 9 7 7 6 5 5 5 6
16 15 14 11 10 9 10 12 13 7 4 3 4 4 2 1 0 1 1 1 3 3 1 3 2 3 2 1 2 3 4 6 9 9 8 10 7 6 8 5 5 5 4 4 3 3 2 1 1 0 1 2 3 3 1 3 4 3 4 3 5 5 4 2 2 3 4 4 5 7 6 6 4 7 8 8 10 9 7 8 9 8 7 7 6 6 6 6
18 16 14 12 11 9 9 13 12 4 3 2 1 1 1 1 1 2 1 2 3 2 2 4 2 2 3 3 3 3 7 9 9 8 9 10 8 7 7 4 5 7 5 3 2 3 2 1 2 1 1 3 3 3 3 4 4 3 1 2 4 4 4 3 1 3 6 4 4 6 7 9 7 7 8 9 11 10 9 9 9 9 8 7 7 6 7 7
20 17 15 12 12 11 10 12 8 5 3 1 3 3 2 1 2 3 4 4 3 1 2 3 5 1 1 4 5 6 9 11 9 7 9 10 8 6 6 4 5 5 4 2 3 4 2 1 2 1 3 5 5 6 6 6 6 6 2 2 3 3 4 4 1 5 6 3 5 7 7 9 8 7 9 9 10 10 10 8 7 8 8 7 7 7 7 7
21 19 17 13 11 13 11 11 7 7 4 1 2 2 1 1 2 3 5 6 7 7 5 4 9 4 1 5 7 9 10 9 5 4 9 11 9 7 5 4 3 2 3 3 4 2 2 3 4 4 6 7 7 9 9 8 8 6 3 3 5 4 5 5 1 4 3 1 5 7 7 9 9 7 8 10 10 9 9 9 8 9 9 8 8 8 8 7
22 20 18 15 11 13 11 9 7 10 6 2 1 3 1 0 2 1 2 7 12 15 12 7 10 6 1 7 12 13 7 2 1 4 11 11 9 8 5 5 4 2 5 5 3 2 1 4 6 7 9 8 8 8 9 9 8 6 3 4 6 4 6 6 1 4 3 1 4 6 7 10 9 8 6 10 11 10 11 11 10 10 10 9 9 10 8 6
23 21 19 16 12 13 11 8 8 11 7 4 5 6 2 3 1 3 1 3 9 16 15 12 13 7 3 9 14 11 3 2 4 5 10 11 7 6 5 6 5 4 6 5 3 2 2 6 8 9 8 8 8 5 4 5 5 5 3 3 5 4 6 4 2 3 2 1 4 6 7 9 9 9 8 7 10 12 13 14 13 12 12 10 9 10 9 8
24 22 20 16 12 13 11 8 9 10 8 6 7 7 4 2 2 5 0 3 5 11 12 11 13 10 6 7 11 10 4 6 6 6 13 12 5 4 5 6 6 5 6 7 5 4 4 5 8 11 9 7 7 2 1 3 3 4 3 3 4 4 4 3 0 1 2 3 4 6 7 8 8 9 10 11 12 10 9 9 7 6 10 11 9 10 10 10
25 23 21 16 13 14 11 8 10 10 10 10 11 10 3 2 2 4 0 3 5 6 10 14 12 11 10 7 12 12 5 7 5 7 16 14 5 3 5 7 7 6 6 9 9 8 7 4 4 9 9 6 5 4 4 3 3 4 6 5 5 4 5 5 3 3 3 4 4 4 7 7 8 11 12 10 8 7 5 4 2 0 5 9 8 8 9 10
27 26 23 18 15 15 12 10 11 11 11 11 14 14 8 5 2 2 1 2 5 3 5 12 7 7 12 10 14 12 4 7 6 7 19 16 8 4 4 5 5 6 8 10 10 9 10 5 2 5 6 6 5 5 6 6 3 4 6 8 9 7 6 6 4 2 2 3 2 1 4 5 4 8 9 2 3 6 5 7 7 4 5 8 8 8 8 8
29 27 26 21 16 17 14 8 11 13 11 12 14 11 11 9 2 1 1 2 6 2 2 7 5 8 13 11 12 7 1 6 2 11 21 15 7 3 3 4 3 5 7 7 7 4 3 2 4 6 6 6 5 5 5 7 4 4 4 4 6 7 5 5 6 3 1 3 1 3 2 5 5 8 8 3 4 8 6 7 9 7 6 7 7 7 7 8
31 28 28 24 18 23 16 5 13 16 8 10 13 10 11 12 6 2 1 3 6 4 5 4 3 7 10 12 14 7 1 4 5 9 12 7 5 1 2 6 4 4 3 2 4 2 4 5 3 5 6 6 6 5 5 8 4 3 3 3 1 2 3 3 3 3 3 3 2 3 3 7 8 8 10 8 8 8 8 10 10 9 9 8 8 8 8 8
34 31 30 26 23 28 19 8 16 18 8 4 9 13 13 13 9 3 2 3 4 4 5 2 1 2 5 12 15 7 2 5 6 2 1 1 2 2 3 8 6 6 4 3 5 1 3 6 6 7 6 5 5 4 5 8 5 2 1 2 4 2 2 2 2 3 3 3 2 4 3 5 8 4 6 9 9 9 11 13 12 11 10 10 9 9 9 8
35 33 33 28 25 27 19 9 12 15 13 8 9 16 15 11 7 0 1 3 1 3 3 3 2 3 6 10 11 6 3 3 2 1 1 2 1 2 3 6 4 6 7 8 8 1 1 3 4 6 6 5 3 2 1 5 5 3 3 5 5 3 3 2 2 1 2 4 5 5 5 4 9 4 4 7 7 9 11 11 11 11 10 9 9 9 9 8
37 35 35 30 27 30 25 14 11 14 17 12 12 18 14 7 3 2 3 4 1 1 3 2 3 6 10 10 7 5 3 2 2 2 2 1 1 2 1 1 3 3 3 6 7 1 3 1 1 1 2 2 4 5 5 2 5 5 4 5 3 1 2 1 1 1 1 6 6 8 10 6 6 4 4 5 5 8 8 4 4 8 9 9 9 9 9 8
40 37 37 35 32 34 26 17 16 17 17 15 16 17 11 3 1 4 7 2 3 1 4 2 4 10 13 13 8 6 4 3 4 6 4 3 1 1 1 1 1 1 1 3 3 1 3 2 0 0 1 3 5 4 4 4 3 4 4 3 2 0 2 2 1 2 2 6 5 9 13 11 8 4 0 1 2 2 3 4 7 9 10 9 8 8 9 8
42 39 40 38 34 35 26 20 23 21 18 19 18 12 6 2 2 7 6 2 1 4 6 5 7 10 13 13 10 9 8 5 6 7 5 5 5 5 6 6 5 3 3 4 3 1 3 5 4 1 2 3 5 3 3 5 2 3 4 5 3 1 1 0 2 3 4 6 3 4 8 9 9 7 5 5 2 1 1 2 8 11 10 9 9 8 8 8
42 41 42 41 38 37 28 23 26 23 21 23 14 5 3 5 8 11 10 5 1 1 5 7 9 11 13 11 7 8 7 4 7 7 5 6 6 6 7 7 7 5 3 5 6 2 2 4 6 4 2 5 9 6 3 1 2 5 5 5 5 3 2 3 4 3 4 4 4 2 2 3 4 4 9 11 5 3 4 3 4 11 11 9 9 9 8 8
43 42 43 43 42 39 29 25 28 26 26 21 8 3 6 8 10 11 13 12 4 2 3 6 9 10 11 8 6 9 5 4 9 9 6 7 5 6 7 9 12 8 1 3 4 5 4 4 6 9 3 8 13 10 7 6 6 7 6 5 5 4 4 4 4 3 3 2 3 2 1 3 2 1 4 3 2 5 4 4 2 8 9 8 8 8 8 9
43 44 44 42 40 38 32 30 32 31 27 16 6 7 10 9 9 11 13 13 7 2 4 7 9 9 8 5 5 8 3 2 9 8 6 8 7 8 9 10 14 10 4 5 3 5 7 5 5 7 3 10 13 9 6 8 4 5 4 4 5 4 4 3 1 2 1 2 2 2 3 4 3 2 3 4 3 4 2 2 4 7 8 9 8 8 9 8
42 43 40 37 38 40 37 32 34 35 23 11 7 9 11 11 11 11 9 10 11 7 7 8 7 7 7 4 5 6 1 2 8 6 5 7 6 8 9 8 13 14 10 8 3 4 6 3 2 3 2 6 6 5 7 5 3 3 4 5 4 1 2 3 2 2 3 3 3 4 4 4 2 5 5 7 3 4 3 2 5 7 8 9 8 8 8 8
35 32 26 29 38 44 42 37 38 35 18 9 10 10 11 14 15 12 9 11 13 11 9 8 6 7 8 5 5 8 4 3 7 6 3 4 4 8 11 7 12 18 15 9 3 2 4 1 1 1 2 1 3 1 3 1 3 5 4 5 3 4 2 1 1 2 1 5 4 5 8 5 2 5 3 7 4 5 6 6 6 7 8 9 8 8 8 8
28 20 15 27 40 45 46 43 38 27 11 8 13 12 12 15 17 14 12 12 12 12 11 10 8 8 9 7 6 11 9 5 7 7 5 5 4 8 13 9 10 18 17 11 4 2 2 2 3 1 2 1 3 1 2 3 3 4 2 2 3 2 1 2 2 2 3 5 5 4 8 7 7 5 3 6 9 10 9 8 8 9 10 9 8 9 9 9
21 8 8 27 40 42 46 45 31 14 6 9 12 11 12 16 16 14 12 11 10 12 13 13 10 8 10 10 8 11 12 9 10 8 5 6 4 7 15 10 8 15 16 13 6 1 1 3 2 3 2 1 0 1 4 3 1 4 3 2 2 2 3 4 3 2 3 3 5 4 5 5 7 7 9 11 13 13 11 10 11 12 11 10 9 10 10 10
14 3 6 24 40 44 47 39 19 7 7 10 12 12 13 13 11 12 15 15 10 9 11 12 12 10 10 12 9 10 11 10 11 9 6 7 5 6 12 11 8 10 13 13 7 1 2 3 3 2 2 2 2 4 9 10 7 3 1 2 2 2 1 0 2 2 3 3 4 5 6 4 2 4 10 13 13 12 12 12 12 11 11 11 10 11 11 11
8 5 5 22 42 47 40 23 10 9 9 9 13 16 13 9 8 11 19 21 14 7 7 8 11 11 10 11 10 8 9 8 10 8 6 8 8 5 8 12 10 9 10 9 7 5 3 3 4 2 2 3 4 6 7 7 7 7 6 7 7 5 4 1 4 4 3 4 4 3 8 6 1 1 4 8 8 10 12 12 10 10 12 11 10 11 12 11
5 6 6 28 48 45 25 9 6 8 8 11 16 15 7 4 8 10 14 19 17 12 7 6 9 10 9 10 9 8 8 7 9 9 7 10 11 7 9 13 13 13 11 7 8 6 4 3 3 3 4 4 3 2 2 1 1 2 3 5 6 6 7 5 6 5 4 6 5 1 7 7 1 3 2 4 2 3 8 11 9 9 10 10 10 11 11 11
4 7 9 35 56 42 15 8 9 7 7 11 15 13 5 4 10 11 11 15 16 14 11 9 9 10 9 8 8 8 9 7 10 11 8 9 10 8 12 15 14 14 10 4 4 3 4 3 4 2 1 1 2 2 3 4 3 0 4 6 8 9 9 7 5 2 2 6 4 2 7 7 1 3 3 4 2 2 1 7 10 8 8 9 10 11 11 11
4 5 5 32 58 41 10 7 11 9 9 11 13 13 10 7 9 12 13 16 15 12 13 13 11 11 10 7 6 7 10 7 10 12 9 7 6 4 12 18 16 13 9 5 6 6 3 3 3 2 1 1 1 1 2 2 1 3 5 7 9 10 9 7 3 1 4 8 7 5 10 6 1 1 2 4 2 3 4 1 7 9 8 9 9 9 11 11
3 3 1 15 36 28 10 10 13 11 12 15 15 16 15 9 8 10 10 13 14 12 12 13 11 9 9 8 7 7 10 10 9 9 8 7 3 2 7 17 17 13 8 7 11 9 5 4 5 5 6 7 7 5 3 4 3 3 5 8 11 12 12 9 4 4 9 7 8 9 12 4 0 2 3 2 1 3 2 2 3 7 8 9 8 8 9 10
3 4 2 4 10 10 9 13 15 13 15 16 13 13 18 15 9 8 7 8 12 14 12 11 10 9 9 12 13 12 14 13 8 6 6 7 3 3 2 11 15 12 7 10 13 9 3 4 9 11 11 12 12 7 4 8 7 7 10 12 14 15 14 10 6 9 9 3 6 14 12 8 6 4 5 6 6 6 4 4 4 5 7 8 8 8 8 9
3 4 4 4 4 6 7 10 14 13 14 16 11 9 18 21 12 7 6 7 10 13 11 8 9 12 13 16 16 15 15 13 9 9 9 7 2 3 3 1 7 9 9 10 11 7 3 4 11 16 16 17 18 13 5 10 12 15 16 16 16 16 15 14 13 14 9 4 12 13 8 12 14 7 8 9 7 7 8 8 7 6 7 8 8 9 9 9
2 2 3 3 3 5 6 7 12 13 13 15 10 8 15 19 15 10 9 8 9 9 7 5 10 17 20 18 15 12 12 11 11 13 13 7 4 2 2 3 1 5 7 5 6 5 4 7 11 14 16 18 19 16 11 11 11 12 14 17 18 17 19 20 21 19 11 10 17 11 9 16 16 9 10 10 9 10 10 9 8 6 7 8 9 10 11 11
1 1 2 2 2 4 3 2 5 11 15 15 10 10 14 17 19 16 9 6 8 9 9 11 16 19 19 16 13 11 11 12 13 14 13 8 5 5 4 1 1 1 5 4 3 2 3 6 9 9 11 17 19 17 14 11 10 10 12 14 16 19 23 23 22 21 16 17 22 14 11 17 12 7 11 10 9 7 6 8 9 9 8 9 10 11 11 11
2 1 1 0 2 2 2 2 1 5 10 12 11 11 13 16 20 17 11 10 11 11 13 17 20 18 16 15 14 15 16 17 18 16 12 10 7 5 6 5 3 2 3 4 2 1 2 4 3 4 5 14 18 15 13 13 13 13 12 13 16 19 21 19 18 18 15 19 23 16 14 17 8 5 6 5 6 7 8 9 10 9 9 9 9 10 10 10
1 1 1 2 2 2 2 4 4 3 4 7 10 11 12 18 22 18 14 15 15 12 13 19 21 14 12 15 16 19 21 19 18 14 8 9 9 8 7 5 7 6 5 5 3 2 3 2 1 4 5 14 16 13 13 13 12 14 17 21 23 18 14 14 16 15 15 18 19 14 14 16 7 6 4 5 8 9 9 9 9 8 10 11 10 10 10 10
1 1 0 2 2 2 2 2 5 5 3 4 9 11 11 17 20 16 11 10 15 16 13 17 19 12 10 16 20 22 20 13 8 5 2 3 4 5 6 6 8 10 8 6 4 3 6 5 3 5 7 12 12 9 9 9 8 12 18 23 24 18 13 13 15 17 18 17 14 12 15 13 6 7 6 6 8 9 9 9 9 10 11 11 12 11 11 11
Wind_Direction
225 228 243 250 260 249 253 252 200 193 201 190 189 187 190 195 186 191 211 230 241 254 282 309 323 322 320 315 319 318 316 328 320 305 334 311 308 249 182 148 142 118 84 43 13 337 302 243 96 330 276 231 353 358 297 326 13 345 322 224 265 216 107 307 40 80 132 131 141 146 195 203 137 149 130 156 226 219 159 116 100 74 75 95 99 89 75 61
224 224 245 302 313 289 274 264 171 203 210 182 182 182 184 180 188 201 193 231 265 299 311 318 313 310 307 308 316 315 322 332 311 318 43 351 283 161 158 145 139 112 76 27 355 327 320 15 30 314 270 205 72 347 272 354 42 318 299 274 309 49 56 334 42 48 29 104 124 112 20 344 100 118 112 220 213 202 191 135 127 99 98 106 94 83 77 69
205 213 219 338 330 305 298 300 246 249 244 182 168 151 149 149 161 173 165 318 348 331 314 305 299 301 301 308 313 317 331 331 295 86 65 68 125 135 136 139 125 105 82 28 355 336 336 348 341 301 278 227 107 87 231 27 351 114 356 338 24 69 77 23 50 58 19 49 109 115 77 347 113 115 128 257 256 218 195 135 155 143 130 117 95 84 83 77
253 262 249 307 314 307 316 313 297 287 283 247 170 164 142 122 118 54 7 341 332 311 301 293 295 298 300 309 311 322 339 323 271 103 106 112 126 126 120 121 105 99 79 31 339 326 321 297 293 293 293 249 138 194 184 94 353 -0 24 70 54 12 76 59 53 60 37 26 29 86 92 255 124 104 151 266 283 257 58 41 126 137 131 122 106 89 84 80
257 260 290 296 297 308 317 310 302 303 300 284 243 209 163 106 9 12 332 318 308 293 292 290 294 294 298 307 309 329 344 297 131 131 133 123 126 119 112 106 92 87 78 35 313 309 293 273 273 279 265 197 154 180 70 84 48 310 12 85 70 357 50 96 73 51 38 35 10 56 97 288 85 97 221 228 256 230 87 44 55 94 110 113 113 103 87 77
259 248 273 293 294 286 287 299 296 296 304 280 252 271 241 293 314 314 297 292 289 284 284 287 293 293 298 299 305 327 333 30 143 162 142 131 132 121 114 102 90 74 69 358 292 287 282 270 251 258 261 250 130 106 73 74 104 293 14 80 60 16 44 101 93 62 12 8 312 320 -0 22 20 285 237 223 218 116 99 83 76 83 99 106 108 103 91 79
260 263 276 290 289 279 273 288 286 286 290 267 253 266 268 284 296 304 291 283 284 280 281 287 296 295 295 298 307 296 254 62 131 166 147 141 138 129 122 104 103 76 38 298 282 283 306 294 267 306 306 287 31 89 69 314 224 253 239 116 68 6 8 78 99 118 33 296 284 29 15 337 280 287 274 201 120 111 109 103 104 104 108 110 104 95 92 86
253 264 276 289 296 293 287 282 274 275 273 262 265 261 265 277 283 296 288 284 282 271 282 291 301 299 296 307 316 272 232 82 136 163 154 148 137 138 128 93 93 60 350 301 314 331 347 299 294 12 318 317 10 100 97 297 238 247 344 98 83 332 261 114 130 163 188 252 283 340 307 261 252 279 329 153 121 120 123 114 114 115 114 109 103 102 100 93
255 261 270 287 308 299 286 284 275 266 273 275 276 270 273 276 279 290 289 288 280 278 291 284 289 289 297 307 291 279 218 125 150 160 163 167 163 167 136 83 32 344 305 305 327 313 333 329 351 17 335 1 4 355 105 39 277 7 13 1 273 230 221 172 174 200 204 216 221 252 253 251 239 108 311 161 131 127 125 120 124 125 120 109 104 107 105 102
256 261 263 274 299 299 286 281 277 270 265 269 274 278 282 282 282 285 285 283 275 284 282 281 284 272 295 293 263 275 131 138 143 152 172 187 175 154 139 117 104 302 294 308 324 306 337 1 358 17 2 332 291 28 87 75 275 332 358 317 280 260 248 189 194 215 197 196 192 207 253 256 143 140 247 143 129 138 129 129 139 132 127 122 116 109 107 108
251 257 264 272 285 297 293 277 271 266 252 260 271 278 285 286 284 287 286 276 265 272 261 278 266 275 305 290 268 275 156 146 136 144 161 172 162 153 178 184 147 329 316 300 292 342 358 2 339 338 36 345 286 131 100 40 253 332 352 294 268 249 245 208 215 220 168 183 196 199 263 265 133 213 222 142 143 152 135 139 153 142 130 128 124 122 115 106
246 254 260 265 272 288 295 286 273 266 261 270 274 277 290 292 286 286 284 265 251 249 237 246 250 290 316 280 259 200 162 152 141 149 152 157 164 172 193 192 175 169 336 323 23 63 338 355 327 289 16 355 322 152 124 319 271 308 264 275 279 257 241 213 206 195 154 165 174 164 284 254 208 221 157 132 153 152 143 151 157 150 134 134 129 127 117 105
242 255 255 251 264 274 286 292 286 280 276 278 286 294 299 297 288 281 281 265 245 243 235 228 239 312 319 276 200 166 162 152 147 151 152 147 148 166 188 194 206 215 283 336 50 113 235 353 323 303 16 352 323 172 224 225 230 277 243 232 282 288 258 205 174 146 141 149 154 141 291 261 215 180 122 131 157 152 156 161 161 155 138 144 139 128 113 105
241 250 250 235 251 268 282 295 291 285 280 281 294 298 300 299 286 281 281 258 239 241 235 222 229 253 278 252 146 165 168 152 145 149 149 137 124 125 143 188 195 210 209 149 85 152 161 65 314 307 52 4 318 205 265 233 191 264 279 227 212 277 283 191 129 137 147 171 165 145 237 275 166 133 138 153 163 160 167 168 167 161 151 154 141 131 120 104
251 248 247 229 234 261 277 289 288 278 270 278 285 287 297 298 286 290 279 261 251 233 229 236 227 230 280 246 142 158 172 159 154 164 160 143 145 145 130 139 128 129 139 132 165 155 133 145 296 291 97 87 244 256 278 258 205 199 260 275 215 192 221 176 145 164 166 207 181 158 226 256 151 145 161 162 168 174 176 171 169 164 160 158 149 152 142 123
258 252 247 234 230 256 273 285 289 274 253 262 275 284 293 295 301 290 259 252 226 192 185 269 215 218 293 245 147 152 178 178 172 179 175 156 156 145 134 132 118 124 127 121 144 145 156 228 279 332 138 169 217 226 269 282 259 201 192 257 260 212 208 161 170 201 161 133 178 195 255 270 160 160 166 166 178 190 191 175 170 172 167 163 168 169 150 139
255 256 252 239 232 253 271 282 288 267 223 245 275 302 315 326 69 206 255 201 165 162 211 310 257 219 262 167 169 199 165 164 173 179 182 165 147 135 144 148 140 142 129 124 149 162 191 212 122 342 218 216 238 207 239 272 259 230 180 223 257 238 232 194 186 216 170 156 196 210 239 263 213 167 175 183 182 191 204 186 172 171 169 169 172 168 160 157
249 254 253 240 227 237 259 274 280 234 183 259 282 357 21 64 190 191 157 160 140 99 284 289 286 248 231 187 156 132 131 143 159 166 177 170 153 156 169 167 152 155 150 148 191 187 188 165 136 279 239 203 227 199 185 216 248 285 197 217 271 265 257 247 149 167 181 198 232 210 220 249 233 180 184 195 189 192 203 195 176 170 171 173 172 172 170 163
244 247 251 246 223 218 243 266 261 177 146 36 65 55 35 22 259 224 205 197 158 160 264 202 196 224 139 159 119 92 115 137 147 153 169 167 155 169 187 179 166 174 172 159 197 190 159 132 148 212 230 203 207 207 208 224 260 303 324 285 303 316 288 286 101 167 185 200 233 226 230 249 243 204 189 195 199 197 202 200 179 169 172 174 175 177 170 161
241 241 247 251 226 213 235 259 230 164 153 100 41 344 293 221 249 216 199 214 215 233 267 179 187 219 77 128 116 108 116 130 139 147 163 164 155 163 186 188 171 201 220 174 173 184 133 174 195 203 216 216 210 212 224 243 266 288 316 301 288 291 277 278 207 171 177 182 233 239 249 256 258 240 199 186 198 206 206 206 195 179 176 178 178 175 165 152
239 236 241 248 232 215 231 256 206 167 170 185 281 259 246 69 226 138 176 222 226 235 258 239 209 226 140 135 144 142 130 133 177 153 164 170 169 167 177 187 168 194 230 200 148 44 84 204 219 217 220 231 232 226 224 231 253 267 275 285 279 270 267 273 183 154 134 122 252 263 269 265 261 259 225 180 188 208 206 204 204 191 181 181 176 170 156 132
236 234 236 243 236 211 218 244 198 169 173 200 242 243 305 4 35 42 23 243 232 224 237 248 241 241 141 147 165 169 174 177 157 159 174 176 184 186 171 180 191 196 206 195 128 81 225 233 231 227 233 241 245 258 248 232 243 254 256 271 270 267 279 289 109 130 119 143 262 276 275 271 264 266 258 205 193 206 209 206 205 194 188 187 174 166 150 138
234 231 231 239 230 202 205 222 188 171 185 207 226 233 289 325 70 47 262 274 268 220 217 229 236 229 184 161 175 184 210 188 173 181 181 176 181 201 178 178 207 215 197 190 178 180 212 237 228 222 234 240 231 227 272 278 263 240 239 251 256 254 268 284 147 184 183 199 264 292 286 273 269 266 258 239 216 205 208 207 206 203 193 182 170 164 155 154
230 227 227 230 217 200 199 197 180 187 205 218 229 226 261 292 75 52 199 274 266 223 210 207 214 219 199 167 173 187 213 207 201 177 177 178 163 176 195 188 205 222 211 196 197 219 232 246 224 205 209 214 207 198 205 231 247 230 219 223 245 250 238 241 238 195 192 224 246 288 297 268 246 246 245 244 219 189 177 169 160 227 168 152 149 158 158 160
226 224 221 218 215 200 184 182 189 199 202 220 237 229 231 251 319 17 30 283 250 246 219 203 202 213 193 160 164 176 201 221 227 164 173 183 168 153 196 195 208 222 218 205 205 235 243 236 159 165 178 181 196 219 193 184 231 243 219 217 225 240 256 270 299 341 333 291 225 172 295 267 232 242 245 238 169 186 173 177 188 171 139 143 148 157 155 155
223 222 216 214 212 186 173 188 199 196 200 224 235 222 220 224 249 346 106 303 257 241 140 181 167 184 180 155 152 139 131 231 222 148 168 188 190 169 202 187 195 226 222 213 213 240 231 169 130 152 167 171 194 230 189 171 208 248 253 246 220 229 264 293 311 320 281 279 232 146 243 274 281 267 260 241 196 205 192 199 203 182 169 169 161 161 158 154
221 219 213 213 199 176 174 194 182 179 195 233 226 206 205 206 213 255 127 306 265 173 138 179 175 176 166 156 155 133 182 179 100 136 162 188 199 149 211 192 179 216 232 218 222 221 131 138 137 153 163 172 193 222 189 169 183 227 273 336 76 218 266 277 287 263 244 301 280 171 196 276 280 257 244 230 209 210 210 216 215 196 191 183 168 168 165 163
220 216 210 211 197 181 175 163 172 178 191 211 198 193 191 193 209 239 128 263 268 128 131 187 141 127 134 159 164 144 141 135 114 161 93 101 189 78 211 211 191 188 194 198 218 296 118 162 172 168 174 192 200 216 194 179 184 208 213 55 76 80 28 2 311 267 289 328 267 192 166 262 274 247 218 220 211 218 222 219 218 205 192 182 179 174 166 166
216 212 208 206 199 190 183 177 178 186 197 181 167 183 179 177 196 337 96 226 237 102 126 152 127 112 128 162 178 155 99 77 88 227 47 93 198 41 212 231 232 203 204 210 217 292 51 179 181 173 187 204 172 28 322 181 179 186 137 83 73 77 60 33 296 286 311 283 236 204 165 222 276 269 192 206 210 221 228 224 216 200 183 179 179 171 165 164
213 210 207 200 194 193 197 216 205 184 193 185 165 170 160 154 175 139 200 225 253 96 101 125 152 149 152 160 179 168 123 49 58 126 130 135 32 352 258 282 309 250 226 229 231 198 110 133 274 186 187 169 117 57 11 65 129 149 135 93 84 120 81 61 247 122 302 266 225 199 186 193 273 277 177 194 204 215 227 221 183 171 168 175 174 165 163 162
211 209 205 199 194 190 193 214 200 180 189 178 155 153 145 125 220 190 203 243 332 159 119 121 149 149 164 162 165 185 161 117 133 146 147 141 128 325 224 155 26 339 339 291 272 173 135 136 98 339 82 110 103 71 12 19 90 128 125 114 112 100 47 33 264 135 228 258 219 197 194 193 230 260 93 91 118 189 224 172 160 164 168 172 168 161 159 160
210 208 203 200 197 190 190 199 185 176 184 170 149 147 148 134 220 226 210 97 10 195 146 149 164 161 174 172 172 182 166 144 161 166 154 155 174 189 197 190 160 163 234 235 227 219 219 202 166 128 294 167 133 103 30 358 347 148 135 131 130 174 340 299 211 183 224 251 259 215 195 203 234 249 263 270 232 161 349 167 168 167 170 171 164 159 156 158
211 207 202 201 197 193 194 189 180 178 179 166 149 142 153 171 207 220 212 187 197 183 120 142 169 172 176 180 177 164 159 156 165 170 156 155 181 200 213 216 190 193 221 188 189 196 242 229 178 169 287 195 175 172 178 226 192 179 162 152 159 172 221 238 217 224 240 246 290 308 182 230 278 261 246 252 239 128 40 -0 168 161 165 167 158 153 152 157
213 207 202 201 199 196 190 181 182 180 167 156 142 143 167 200 219 215 218 223 216 88 107 146 159 169 181 188 164 150 162 175 162 166 161 158 186 205 210 222 213 214 193 163 189 178 203 271 189 177 183 181 191 203 184 143 162 192 180 170 180 171 197 221 200 224 259 279 304 323 156 191 221 243 222 230 84 88 41 360 96 137 147 145 143 147 152 162
214 208 204 200 198 197 188 182 186 177 160 150 150 168 181 206 220 217 223 222 209 163 143 150 150 165 188 196 163 160 161 164 166 171 176 177 195 200 195 208 207 200 175 188 203 168 204 259 172 163 155 168 189 213 174 127 150 206 180 187 217 204 205 226 186 172 143 329 282 219 230 221 211 235 160 121 85 99 73 8 116 129 137 137 147 158 159 167
211 205 203 196 195 195 187 185 186 176 163 155 164 179 196 207 207 208 210 203 201 186 149 157 165 172 185 176 176 189 155 106 166 175 195 199 214 211 202 196 193 195 189 185 187 159 193 258 107 109 102 160 186 214 185 155 158 177 177 198 203 147 179 217 290 62 93 277 257 181 242 280 293 267 182 148 153 130 134 222 169 150 150 151 161 169 168 169
209 203 202 195 195 193 187 187 185 177 170 171 183 194 202 210 216 205 188 193 197 175 157 184 190 177 184 172 179 192 167 116 169 177 180 193 227 217 208 198 183 196 202 190 201 201 168 206 290 130 113 213 305 236 167 56 108 138 187 199 126 50 33 136 284 6 118 257 260 187 231 243 207 258 196 147 181 201 197 207 186 168 166 170 174 172 170 166
212 204 207 204 199 192 187 188 184 177 177 188 200 210 204 212 222 207 194 198 188 172 184 210 197 175 185 186 180 181 173 160 176 184 172 179 224 200 193 200 185 194 205 196 208 274 159 184 275 330 58 325 310 104 105 1 62 114 202 218 110 92 232 139 183 252 205 253 283 213 224 228 204 218 174 167 207 216 204 193 193 191 181 180 178 170 168 161
210 200 232 211 200 191 186 187 183 177 192 198 203 215 213 219 221 205 205 213 190 180 200 214 203 191 197 195 179 172 181 179 168 179 188 185 215 190 180 189 190 191 195 192 200 267 143 190 247 320 358 106 13 133 169 204 46 43 342 307 78 134 178 165 183 201 179 241 283 252 229 230 216 197 172 189 211 207 192 190 199 199 187 183 178 171 172 169
199 203 252 203 195 190 184 183 182 184 199 200 207 216 216 221 216 199 210 223 213 193 204 211 202 203 207 202 186 170 187 190 171 183 205 181 191 198 180 179 182 181 180 187 198 125 107 200 214 302 324 131 159 207 192 189 184 169 203 208 186 142 108 142 231 190 170 220 260 268 266 249 224 200 178 188 206 198 186 193 201 197 188 184 179 174 174 172
187 232 233 182 186 184 178 179 191 191 192 198 216 228 225 221 215 202 208 218 227 223 215 214 207 209 210 205 196 169 178 196 182 188 208 188 196 212 178 174 171 159 155 176 200 187 169 186 167 164 230 204 216 213 196 194 190 187 191 190 187 172 142 203 252 207 178 223 221 249 270 254 159 40 167 172 194 193 186 193 196 189 186 183 178 177 175 172
190 242 191 167 175 175 170 194 208 186 197 199 209 225 223 207 224 216 206 214 227 235 235 234 221 218 213 206 202 169 166 195 194 193 208 202 205 203 176 175 168 156 151 168 199 190 128 122 173 184 190 201 221 186 146 115 138 185 218 194 181 187 178 188 229 209 177 229 226 243 279 269 83 49 74 118 140 182 181 183 182 182 182 178 174 172 171 171
215 235 172 163 169 168 168 212 198 195 220 211 216 225 211 206 222 218 206 207 219 227 228 232 225 223 221 210 205 180 169 191 201 201 211 208 208 195 174 171 162 158 158 159 187 160 81 117 191 204 168 128 74 64 50 42 61 78 241 197 187 203 200 202 221 176 171 225 197 171 261 263 6 18 26 59 57 32 135 166 165 168 172 173 175 169 166 167
230 238 177 169 170 167 171 208 193 206 218 216 226 223 221 236 223 216 210 203 207 215 220 225 221 221 223 215 216 196 177 192 210 207 206 203 213 203 174 169 160 163 175 173 169 164 152 165 145 128 214 220 65 351 337 352 173 215 224 205 206 208 202 220 242 67 251 228 172 194 247 243 254 332 58 40 25 49 27 109 157 161 169 171 172 169 165 163
225 227 286 182 173 168 184 201 192 202 208 215 222 213 218 233 219 223 228 212 207 206 214 226 219 214 219 218 238 229 199 205 216 208 207 202 218 300 178 169 167 176 186 166 158 157 165 169 149 168 213 224 225 228 213 191 193 227 218 204 213 210 197 207 211 210 241 223 164 214 246 247 295 204 157 150 167 121 50 325 156 154 162 165 165 168 167 163
220 212 204 208 191 188 199 194 193 200 201 209 217 211 216 223 214 220 236 233 222 212 215 225 210 204 215 214 227 235 221 219 215 202 208 197 192 336 182 172 177 177 144 135 149 145 136 174 182 194 211 226 237 242 170 146 163 204 209 202 209 212 203 201 210 220 225 210 208 229 240 257 261 220 196 207 190 170 185 213 190 159 158 161 162 164 162 165
233 224 177 179 226 233 219 199 197 201 197 197 198 196 209 218 218 204 205 225 229 219 219 221 198 199 206 207 217 227 226 225 222 216 214 195 155 5 20 123 185 162 118 131 155 136 104 193 201 205 217 230 241 250 205 161 182 203 204 204 208 207 203 202 218 224 199 196 247 233 211 245 248 212 210 220 194 188 194 196 197 175 162 163 160 160 162 166
232 241 207 197 213 219 230 217 198 195 191 188 192 201 206 212 215 203 197 213 227 223 216 217 212 209 206 203 211 222 221 220 224 224 218 192 127 100 62 15 236 154 118 141 174 132 138 208 211 208 223 236 242 247 228 189 195 204 201 206 207 202 204 207 219 225 197 208 248 234 183 232 244 215 211 211 193 200 196 182 179 165 161 162 160 168 172 170
219 280 284 288 256 207 206 218 198 198 193 184 193 212 206 208 214 212 201 195 215 218 205 211 219 216 211 206 206 214 212 210 220 224 215 195 156 142 163 217 277 111 101 138 197 149 158 217 219 202 224 244 244 243 235 221 225 225 213 213 207 204 209 209 216 224 214 224 245 243 226 241 243 207 210 205 189 190 159 145 158 164 169 167 166 177 181 178
196 211 228 244 286 246 177 172 217 224 204 189 197 207 202 208 216 216 209 199 204 207 203 215 222 216 213 212 211 219 217 211 219 221 205 194 189 173 187 190 154 127 127 146 183 284 193 218 223 157 216 252 248 242 239 238 243 247 243 234 223 216 213 211 218 222 219 232 243 244 251 254 236 166 191 181 146 135 128 144 160 166 171 169 173 183 182 184
218 228 161 148 220 238 182 189 197 222 226 201 205 206 201 211 216 214 213 212 210 204 198 214 224 218 213 217 218 226 226 220 227 232 205 194 207 203 201 181 141 144 172 170 156 170 183 199 65 119 204 249 246 235 235 240 246 254 255 246 234 224 213 210 219 217 210 227 238 238 247 250 221 140 139 138 139 146 152 158 159 165 172 171 178 187 186 190
170 332 0 161 214 210 178 203 195 198 210 206 220 222 211 218 221 215 212 217 218 217 208 211 220 218 211 218 221 228 234 231 238 254 190 175 220 217 203 189 160 157 169 174 157 157 174 188 197 171 212 250 245 215 212 227 238 244 246 243 235 225 216 215 221 220 213 217 224 226 237 244 205 147 155 164 166 170 172 170 166 168 174 178 183 184 186 193